• Join FlightAware (Why Join?)
  • Login
  • US Flag GB Flag 
10:11 EDT


 

Airport Tracker/Info


-or-


 

Live Flight TrackerFlight Track Log ✈ AWE3268 ✈ 02-May-2013 ✈ KCMH - KPHL

Flight Track Log - Related Links

Times and Time Zones

All times are in EDT time to prevent confusion due to time zone crossing. See the AWE3268 flight status page for this flight to view local times or setup timezone preferences in your user account.

Time Position Orientation Groundspeed Altitude Reporting Facility
EDT Latitude Longitude Course Direction KTS MPH feet Rate Location/Type
14:17 39.9994 -82.8008 81° East 202 232 3,400  Level Indianapolis Center
14:19 40.0334 -82.5331 83° East  Level FlightAware Approximate
14:19 39.9961 -82.7033 93° East 236 272 6,500  Level Indianapolis Center
14:20 40.0452 -82.4146 83° East  Level FlightAware Approximate
14:20 39.9950 -82.6056 91° East 265 305 9,600  Level Indianapolis Center
14:21 40.0608 -82.2969 79° East  Level FlightAware Approximate
14:21 39.9964 -82.4992 89° East 287 330 11,700  Level Indianapolis Center
14:22 40.0788 -82.1796 79° East  Level FlightAware Approximate
14:22 40.0181 -82.3533 79° East 344 396 13,900  Level Indianapolis Center
14:23 40.0954 -82.0543 81° East  Level FlightAware Approximate
14:23 40.0367 -82.2217 79° East 363 418 16,300  Level Indianapolis Center
14:24 40.0556 -82.0867 80° East 373 429 18,200 1,920 Climbing Indianapolis Center
14:25 40.0756 -81.9472 79° East 386 444 20,300 1,860 Climbing Indianapolis Center
14:26 40.0953 -81.8036 80° East 397 457 22,100 1,740 Climbing Indianapolis Center
14:27 40.1178 -81.6464 79° East 409 471 24,000 1,620 Climbing Indianapolis Center
14:28 40.1383 -81.5092 79° East 401 461 25,200 1,440 Climbing Cleveland Center
14:29 40.1542 -81.3544 82° East 413 475 26,700 1,260 Climbing Cleveland Center
14:30 40.1675 -81.1997 84° East 423 487 27,800 1,260 Climbing Cleveland Center
14:31 40.1789 -81.0422 85° East 428 493 29,300 1,500 Climbing Cleveland Center
14:32 40.1897 -80.8875 85° East 428 493 30,800 840 Climbing Cleveland Center
14:33 40.2006 -80.7300 85° East 428 493 31,000 60 Climbing Cleveland Center
14:34 40.2131 -80.5642 84° East 435 501 31,000  Level Cleveland Center
14:35 40.2172 -80.4092 88° East 459 528 31,000  Level Cleveland Center
14:36 40.2250 -80.2350 87° East 471 542 31,000  Level Cleveland Center
14:37 40.2306 -80.0636 88° East 471 542 31,000  Level Cleveland Center
14:38 40.2381 -79.8922 87° East 476 548 31,000  Level Cleveland Center
14:39 40.2431 -79.7208 88° East 476 548 31,000  Level Cleveland Center
14:40 40.2500 -79.5467 87° East 476 548 31,000  Level Cleveland Center
14:41 40.2547 -79.3725 88° East 476 548 31,000  Level Cleveland Center
14:42 40.2586 -79.1847 88° East 471 542 31,000  Level Cleveland Center
14:43 40.2628 -79.0158 88° East 471 542 31,000  Level Cleveland Center
14:44 40.2686 -78.8444 87° East 471 542 31,000  Level Cleveland Center
14:45 40.2722 -78.6756 88° East 471 542 31,000 -660 Level Cleveland Center
14:46 40.2772 -78.3758 89° East 467 537 29,300 -1,500 Descending New York Center
14:47 40.2733 -78.2067 92° East 467 537 26,900 -1,920 Descending New York Center
14:48 40.2606 -78.0447 96° East 462 532 25,500 -960 Descending New York Center
14:49 40.2472 -77.8828 96° East 451 519 25,000 -300 Descending New York Center
14:50 40.2358 -77.7267 95° East 446 513 25,000  Level New York Center
14:51 40.2261 -77.5706 95° East 441 507 25,000 -300 Level New York Center
14:52 40.2122 -77.4117 96° East 441 507 24,500 -600 Descending New York Center
14:53 40.2000 -77.2556 96° East 432 497 23,900 -720 Descending New York Center
14:54 40.1886 -77.1183 96° East 426 490 23,100 -960 Descending New York Center
14:55 40.1744 -76.9542 96° East 418 481 22,000 -1,200 Descending New York Center
14:56 40.1636 -76.8036 95° East 418 481 20,800 -1,320 Descending New York Center
14:57 40.1711 -76.6522 86° East 413 475 19,400 -1,500 Descending New York Center
14:58 40.1614 -76.5100 95° East 396 456 17,900 -1,680 Descending New York Center
14:59 40.1472 -76.3731 98° East 390 449 16,100 -1,860 Descending New York Center
15:00 40.1342 -76.2525 98° East 382 440 14,200 -2,100 Descending New York Center
15:02 40.1181 -76.1047 98° East 368 423 11,900 -1,860 Descending New York Center
15:02 40.1047 -75.9842 98° East 353 406 10,500 -1,320 Descending New York Center
15:03 40.0944 -75.8831 98° East 300 345 9,400 -1,260 Descending New York Center
15:04 40.0839 -75.7872 98° East 273 314 8,000 -1,020 Descending New York Center
15:05 40.0647 -75.6992 106° East 250 288 7,400 -960 Descending New York Center
15:06 39.9950 -75.6725 164° South 227 261 6,200 -1,500 Descending New York Center
15:07 39.9300 -75.6300 153° Southeast 255 293 4,400 -1,140 Descending New York Center
15:08 39.8781 -75.5722 140° Southeast 249 287 4,000 -1,020 Descending New York Center
15:09 39.8547 -75.4842 109° East 244 281 2,500 -1,020 Descending New York Center
15:10 39.8333 -75.4167 112° Southeast 202 232 2,100 -480 Descending Philadelphia TRACON